When you browse on this site, cookies collect data to enhance your experience and personalize the content and advertising you see.
Visit our Privacy Policy to learn more. By continuing to use the site, you agree to this use of cookies and data.
  • In Denmark
  • List of Countries
  • For 7 days
  • Water Temperature
  • Weather Map
  • Weather Widgets
  • user-avatar
    Login

    Hourly Weather Rembiesznica

    Today, 5 June, Friday

    Time Temperature Precipitation Wind Pressure Humidity
    00:00 +13°C° 0 mm 5 mps 738 mmHg 69%
    01:00 +13°C° 0 mm 5 mps 738 mmHg 71%
    02:00 +13°C° 0 mm 6 mps 737 mmHg 71%
    03:00 +13°C° 0 mm 6 mps 737 mmHg 70%
    04:00 +13°C° 0 mm 6 mps 736 mmHg 69%
    05:00 +14°C° 0 mm 6 mps 736 mmHg 72%
    06:00 +15°C° 0 mm 6 mps 736 mmHg 74%
    07:00 +15°C° 0 mm 6 mps 736 mmHg 77%
    08:00 +16°C° 0.1 mm 6 mps 736 mmHg 78%
    09:00 +17°C° 0.1 mm 6 mps 736 mmHg 79%
    10:00 +19°C° 0.1 mm 5 mps 736 mmHg 80%
    11:00 +17°C° 0.8 mm 5 mps 736 mmHg 83%
    12:00 +17°C° 0.8 mm 4 mps 736 mmHg 87%
    13:00 +15°C° 0.8 mm 4 mps 737 mmHg 90%
    14:00 +15°C° 0.2 mm 4 mps 737 mmHg 91%
    15:00 +14°C° 0.2 mm 3 mps 737 mmHg 92%
    16:00 +14°C° 0.2 mm 3 mps 738 mmHg 93%
    17:00 +14°C° 0.1 mm 3 mps 738 mmHg 93%
    18:00 +14°C° 0.1 mm 3 mps 738 mmHg 93%
    19:00 +14°C° 0.1 mm 3 mps 738 mmHg 93%
    20:00 +13°C° 0 mm 3 mps 738 mmHg 94%
    21:00 +12°C° 0 mm 4 mps 738 mmHg 94%
    22:00 +12°C° 0 mm 4 mps 739 mmHg 95%
    23:00 +12°C° 0 mm 5 mps 739 mmHg 93%

    Tomorrow, 6 June, Saturday

    Time Temperature Precipitation Wind Pressure Humidity
    00:00 +12°C° 0 mm 5 mps 739 mmHg 91%
    01:00 +12°C° 0 mm 5 mps 739 mmHg 89%
    02:00 +11°C° 0 mm 6 mps 739 mmHg 89%
    03:00 +10°C° 0 mm 6 mps 740 mmHg 90%
    04:00 +10°C° 0 mm 6 mps 740 mmHg 90%
    05:00 +10°C° 0 mm 7 mps 741 mmHg 84%
    06:00 +11°C° 0 mm 8 mps 742 mmHg 79%
    07:00 +11°C° 0 mm 8 mps 742 mmHg 73%
    08:00 +12°C° 0 mm 8 mps 743 mmHg 67%
    09:00 +15°C° 0 mm 8 mps 743 mmHg 62%
    10:00 +16°C° 0 mm 8 mps 744 mmHg 56%
    11:00 +17°C° 0 mm 8 mps 744 mmHg 55%
    12:00 +18°C° 0 mm 8 mps 744 mmHg 53%
    13:00 +18°C° 0 mm 8 mps 744 mmHg 52%
    14:00 +18°C° 0 mm 7 mps 744 mmHg 55%
    15:00 +17°C° 0 mm 7 mps 745 mmHg 59%
    16:00 +16°C° 0 mm 6 mps 745 mmHg 63%
    17:00 +16°C° 0 mm 5 mps 745 mmHg 66%
    18:00 +17°C° 0 mm 4 mps 745 mmHg 70%
    19:00 +17°C° 0 mm 4 mps 745 mmHg 74%
    20:00 +16°C° 0.1 mm 3 mps 746 mmHg 77%
    21:00 +16°C° 0.1 mm 3 mps 746 mmHg 81%
    22:00 +15°C° 0.1 mm 2 mps 747 mmHg 84%
    23:00 +15°C° 0.1 mm 2 mps 747 mmHg 86%

    Day after tomorrow, 7 June, Sunday

    Time Temperature Precipitation Wind Pressure Humidity
    00:00 +15°C° 0.1 mm 2 mps 747 mmHg 88%
    01:00 +15°C° 0.1 mm 2 mps 747 mmHg 90%
    02:00 +15°C° 0.1 mm 2 mps 747 mmHg 91%
    03:00 +15°C° 0.1 mm 1 mps 747 mmHg 91%
    04:00 +15°C° 0.1 mm 1 mps 747 mmHg 92%
    05:00 +15°C° 0.1 mm 2 mps 747 mmHg 90%
    06:00 +16°C° 0.1 mm 2 mps 747 mmHg 88%
    07:00 +17°C° 0.1 mm 3 mps 747 mmHg 86%
    08:00 +17°C° 0.7 mm 2 mps 747 mmHg 88%
    09:00 +17°C° 0.7 mm 2 mps 747 mmHg 91%
    10:00 +18°C° 0.7 mm 1 mps 747 mmHg 93%
    11:00 +18°C° 1.5 mm 1 mps 747 mmHg 93%
    12:00 +17°C° 1.5 mm 2 mps 747 mmHg 93%
    13:00 +17°C° 1.5 mm 2 mps 747 mmHg 94%
    14:00 +17°C° 0.1 mm 2 mps 747 mmHg 93%
    15:00 +17°C° 0.1 mm 3 mps 747 mmHg 92%
    16:00 +15°C° 0.1 mm 4 mps 747 mmHg 91%
    17:00 +16°C° 0 mm 3 mps 747 mmHg 91%
    18:00 +16°C° 0 mm 3 mps 747 mmHg 92%
    19:00 +16°C° 0 mm 2 mps 747 mmHg 92%
    20:00 +16°C° 0 mm 2 mps 747 mmHg 94%
    21:00 +15°C° 0 mm 2 mps 748 mmHg 95%
    22:00 +14°C° 0 mm 2 mps 748 mmHg 97%
    23:00 +13°C° 0 mm 3 mps 748 mmHg 97%

    8 June, Monday

    Time Temperature Precipitation Wind Pressure Humidity
    00:00 +13°C° 0 mm 3 mps 748 mmHg 97%
    01:00 +13°C° 0 mm 3 mps 748 mmHg 97%
    02:00 +13°C° 0 mm 3 mps 748 mmHg 97%
    03:00 +13°C° 0 mm 3 mps 748 mmHg 97%
    04:00 +13°C° 0 mm 3 mps 748 mmHg 97%
    05:00 +14°C° 0.1 mm 4 mps 748 mmHg 96%
    06:00 +14°C° 0.1 mm 4 mps 748 mmHg 95%
    07:00 +15°C° 0.1 mm 4 mps 748 mmHg 94%
    08:00 +15°C° 0.3 mm 4 mps 748 mmHg 94%
    09:00 +15°C° 0.3 mm 4 mps 748 mmHg 93%
    10:00 +17°C° 0.3 mm 4 mps 748 mmHg 93%
    11:00 +17°C° 0.2 mm 4 mps 748 mmHg 92%
    12:00 +18°C° 0.2 mm 4 mps 747 mmHg 91%
    13:00 +19°C° 0.2 mm 4 mps 747 mmHg 90%
    14:00 +18°C° 0.7 mm 4 mps 747 mmHg 90%
    15:00 +18°C° 0.7 mm 4 mps 747 mmHg 91%
    16:00 +18°C° 0.7 mm 4 mps 747 mmHg 91%
    17:00 +17°C° 0.5 mm 4 mps 747 mmHg 92%
    18:00 +16°C° 0.5 mm 5 mps 747 mmHg 94%
    19:00 +15°C° 0.5 mm 5 mps 747 mmHg 95%
    20:00 +14°C° 0.1 mm 4 mps 748 mmHg 95%
    21:00 +13°C° 0.1 mm 4 mps 748 mmHg 95%
    22:00 +13°C° 0.1 mm 4 mps 748 mmHg 96%
    23:00 +12°C° 0 mm 4 mps 748 mmHg 95%

    9 June, Tuesday

    Time Temperature Precipitation Wind Pressure Humidity
    00:00 +12°C° 0 mm 4 mps 749 mmHg 95%
    01:00 +12°C° 0 mm 4 mps 749 mmHg 95%
    02:00 +12°C° 0 mm 4 mps 749 mmHg 95%
    03:00 +12°C° 0 mm 4 mps 749 mmHg 94%
    04:00 +12°C° 0 mm 4 mps 749 mmHg 94%
    05:00 +12°C° 0 mm 4 mps 750 mmHg 93%
    06:00 +12°C° 0 mm 4 mps 750 mmHg 91%
    07:00 +13°C° 0 mm 4 mps 751 mmHg 90%
    08:00 +13°C° 0 mm 4 mps 751 mmHg 88%
    09:00 +14°C° 0 mm 4 mps 751 mmHg 86%
    10:00 +14°C° 0 mm 4 mps 752 mmHg 84%
    11:00 +15°C° 0 mm 4 mps 752 mmHg 82%
    12:00 +17°C° 0 mm 4 mps 752 mmHg 80%
    13:00 +17°C° 0 mm 4 mps 752 mmHg 77%
    14:00 +18°C° 0 mm 4 mps 752 mmHg 77%
    15:00 +18°C° 0 mm 4 mps 752 mmHg 77%
    16:00 +18°C° 0 mm 4 mps 752 mmHg 77%
    17:00 +17°C° 0 mm 4 mps 752 mmHg 77%
    18:00 +17°C° 0 mm 4 mps 752 mmHg 77%
    19:00 +15°C° 0 mm 4 mps 752 mmHg 78%
    20:00 +14°C° 0 mm 4 mps 752 mmHg 79%
    21:00 +13°C° 0 mm 4 mps 753 mmHg 81%
    22:00 +12°C° 0 mm 4 mps 753 mmHg 82%
    23:00 +12°C° 0 mm 4 mps 753 mmHg 84%

    10 June, Wednesday

    Time Temperature Precipitation Wind Pressure Humidity
    00:00 +11°C° 0 mm 4 mps 753 mmHg 87%
    01:00 +11°C° 0 mm 4 mps 753 mmHg 89%
    02:00 +11°C° 0 mm 4 mps 753 mmHg 89%
    03:00 +11°C° 0 mm 4 mps 752 mmHg 89%
    04:00 +11°C° 0 mm 4 mps 752 mmHg 89%
    05:00 +12°C° 0 mm 4 mps 752 mmHg 86%
    06:00 +13°C° 0 mm 5 mps 752 mmHg 82%
    07:00 +14°C° 0 mm 5 mps 752 mmHg 79%
    08:00 +15°C° 0 mm 5 mps 752 mmHg 78%
    09:00 +16°C° 0 mm 5 mps 753 mmHg 77%
    10:00 +17°C° 0 mm 5 mps 753 mmHg 76%
    11:00 +19°C° 0 mm 5 mps 752 mmHg 76%
    12:00 +20°C° 0 mm 5 mps 752 mmHg 76%
    13:00 +20°C° 0 mm 5 mps 752 mmHg 75%
    14:00 +20°C° 0 mm 5 mps 752 mmHg 77%
    15:00 +20°C° 0 mm 6 mps 752 mmHg 78%
    16:00 +20°C° 0 mm 6 mps 751 mmHg 79%
    17:00 +19°C° 0 mm 6 mps 751 mmHg 82%
    18:00 +17°C° 0 mm 5 mps 751 mmHg 84%
    19:00 +16°C° 0 mm 5 mps 751 mmHg 87%
    20:00 +16°C° 0 mm 5 mps 751 mmHg 88%
    21:00 +15°C° 0 mm 5 mps 751 mmHg 88%
    22:00 +14°C° 0 mm 5 mps 752 mmHg 89%
    23:00 +14°C° 0 mm 5 mps 751 mmHg 90%
    Show more